Meteo Giornale » Osservazioni meteo Austria » Vienna-Schwechat

ore: 16:50 - Osservazioni Meteo Vienna-Schwechat
Lat. 48° 7' N Lon. 16° 34' E Alt. 183 metri s.l.m.

sereno Europe/Vienna

21 °C

Sereno

Temp. 24 Ore

5 °C

22 °C

Nord

14.8 Km/h

Dew point 2 °C

Umidità 28 %

Visibilità  10 Km

Il sole sorge alle ore 05:54

Il sole tramonta alle ore 19:51

Data e Ora Cielo e Fenomeni T °C DP °C Um. % Pres. hPa Vis. km Vento km/h
Oggi h: 16:50 sereno Sereno 21 2 28 1028 10 N 14.8
Oggi h: 16:20 sereno Sereno 22 3 28 1028 10 N 9.3
Oggi h: 15:50 sereno Sereno 21 4 32 1028 10 N 13
Oggi h: 15:20 poco_nuvoloso Poco Nuvoloso 21 2 28 1029 10 N 9.3
Oggi h: 14:50 poco_nuvoloso Poco Nuvoloso 21 5 35 1029 10 N/NO 13
Oggi h: 14:20 poco_nuvoloso Poco Nuvoloso 21 5 35 1029 10 N 14.8
Oggi h: 13:50 poco_nuvoloso Poco Nuvoloso 20 5 37 1029 10 N 13
Oggi h: 13:20 poco_nuvoloso Poco Nuvoloso 20 5 37 1029 10 N 11.1
Oggi h: 12:50 poco_nuvoloso Poco Nuvoloso 20 5 37 1030 10 N 11.1
Oggi h: 12:20 poco_nuvoloso Poco Nuvoloso 19 6 42 1030 10 N 7.4
Oggi h: 11:50 poco_nuvoloso Poco Nuvoloso 18 6 45 1030 10 N 9.3
Oggi h: 11:20 poco_nuvoloso Poco Nuvoloso 17 6 48 1031 10 N/NE 7.4
Oggi h: 10:50 poco_nuvoloso Poco Nuvoloso 16 6 51 1031 10 N 5.5
Oggi h: 10:20 sereno Sereno 15 6 54 1031 10 N 7.4
Oggi h: 09:50 sereno Sereno 14 6 58 1031 10 N 7.4
Oggi h: 08:50 sereno Sereno 12 5 62 1031 10 N 5.5
Oggi h: 08:20 sereno Sereno 11 5 66 1031 10 N 5.5
Oggi h: 07:50 sereno Sereno 10 5 71 1031 10 N 3.7
Oggi h: 07:20 sereno Sereno 9 5 75 1031 10 N 0
Oggi h: 06:50 sereno Sereno 7 4 81 1030 10 N 5.5
Oggi h: 06:20 sereno Sereno 7 3 75 1030 10 N 5.5
Oggi h: 05:50 sereno Sereno 5 3 86 1030 10 N 5.5
Oggi h: 05:20 sereno Sereno 5 2 80 1030 10 N 3.7
Oggi h: 04:50 sereno Sereno 6 3 81 1029 10 N 3.7
Oggi h: 04:20 sereno Sereno 6 3 81 1029 10 S 9.3
Oggi h: 03:50 sereno Sereno 6 2 75 1029 10 SO 7.4
Oggi h: 03:20 sereno Sereno 6 3 81 1029 10 N 5.5
Oggi h: 02:50 sereno Sereno 7 3 75 1029 10 N 3.7
Oggi h: 02:20 sereno Sereno 7 3 75 1029 10 N 5.5
Oggi h: 01:50 sereno Sereno 6 3 81 1029 10 S 7.4
Oggi h: 01:20 sereno Sereno 7 3 75 1029 10 S 7.4
Oggi h: 00:50 sereno Sereno 7 3 75 1029 10 S 7.4
Oggi h: 00:20 sereno Sereno 8 4 75 1029 10 S 9.3
Ieri h: 23:50 sereno Sereno 10 4 66 1029 10 S 7.4
Ieri h: 23:20 sereno Sereno 12 4 57 1029 10 N 1.8
Ieri h: 22:50 sereno Sereno 12 3 54 1029 10 N 5.5
Ieri h: 22:20 sereno Sereno 12 3 54 1029 10 N 1.8
Ieri h: 21:50 sereno Sereno 12 3 54 1029 10 N 3.7
Ieri h: 21:20 sereno Sereno 14 3 47 1028 10 S/SO 9.3
Ieri h: 20:50 sereno Sereno 14 3 47 1028 10 S/SO 9.3
Ieri h: 20:20 sereno Sereno 14 3 47 1028 10 N 3.7
Ieri h: 19:50 sereno Sereno 15 3 44 1028 10 N 5.5
Ieri h: 19:20 sereno Sereno 16 4 44 1028 10 N 3.7
Ieri h: 18:50 sereno Sereno 17 5 45 1028 10 S/SE 9.3
Ieri h: 18:20 sereno Sereno 18 4 39 1027 10 SE 9.3
Ieri h: 17:50 sereno Sereno 18 3 36 1027 10 E/SE 14.8